Stündliche Wetter Abalos

Heute, 17 Juni, Donnerstag

Zeit Temperatur Niederschläge Wind Luftdruck Luftfeuchtigkeit
00:00 +18°C° 0 mm 1 m/S 712 mmHg 89%
01:00 +18°C° 0 mm 1 m/S 711 mmHg 89%
02:00 +16°C° 0 mm 1 m/S 711 mmHg 90%
03:00 +16°C° 0 mm 1 m/S 711 mmHg 90%
04:00 +16°C° 0.6 mm 1 m/S 711 mmHg 92%
05:00 +16°C° 0.6 mm 1 m/S 711 mmHg 93%
06:00 +18°C° 0.6 mm 1 m/S 711 mmHg 94%
07:00 +18°C° 0.6 mm 1 m/S 711 mmHg 92%
08:00 +18°C° 0.6 mm 1 m/S 711 mmHg 91%
09:00 +19°C° 0.6 mm 1 m/S 711 mmHg 90%
10:00 +19°C° 1.3 mm 1 m/S 711 mmHg 90%
11:00 +18°C° 1.3 mm 1 m/S 712 mmHg 90%
12:00 +18°C° 1.3 mm 1 m/S 712 mmHg 90%
13:00 +18°C° 0.9 mm 1 m/S 712 mmHg 89%
14:00 +18°C° 0.9 mm 1 m/S 712 mmHg 87%
15:00 +18°C° 0.9 mm 1 m/S 712 mmHg 86%
16:00 +19°C° 0 mm 1 m/S 712 mmHg 83%
17:00 +20°C° 0 mm 1 m/S 712 mmHg 80%
18:00 +20°C° 0 mm 1 m/S 712 mmHg 78%
19:00 +19°C° 0.1 mm 1 m/S 712 mmHg 82%
20:00 +18°C° 0.1 mm 1 m/S 712 mmHg 87%
21:00 +15°C° 0.1 mm 1 m/S 713 mmHg 91%
22:00 +15°C° 0 mm 1 m/S 713 mmHg 91%
23:00 +15°C° 0 mm 1 m/S 713 mmHg 92%

Morgen, 18 Juni, Freitag

Zeit Temperatur Niederschläge Wind Luftdruck Luftfeuchtigkeit
00:00 +15°C° 0 mm 1 m/S 713 mmHg 92%
01:00 +15°C° 0 mm 1 m/S 713 mmHg 92%
02:00 +15°C° 0 mm 1 m/S 713 mmHg 93%
03:00 +14°C° 0 mm 1 m/S 712 mmHg 93%
04:00 +15°C° 0 mm 1 m/S 713 mmHg 92%
05:00 +15°C° 0 mm 1 m/S 713 mmHg 91%
06:00 +16°C° 0 mm 1 m/S 713 mmHg 90%
07:00 +18°C° 0 mm 1 m/S 714 mmHg 83%
08:00 +19°C° 0 mm 2 m/S 714 mmHg 76%
09:00 +21°C° 0 mm 2 m/S 714 mmHg 69%
10:00 +22°C° 0.2 mm 3 m/S 714 mmHg 65%
11:00 +24°C° 0.2 mm 3 m/S 714 mmHg 60%
12:00 +26°C° 0.2 mm 4 m/S 714 mmHg 56%
13:00 +26°C° 0.1 mm 3 m/S 714 mmHg 54%
14:00 +26°C° 0.1 mm 3 m/S 713 mmHg 53%
15:00 +27°C° 0.1 mm 3 m/S 713 mmHg 51%
16:00 +26°C° 0.1 mm 2 m/S 713 mmHg 56%
17:00 +26°C° 0.1 mm 2 m/S 713 mmHg 61%
18:00 +25°C° 0.1 mm 1 m/S 713 mmHg 66%
19:00 +23°C° 0.2 mm 1 m/S 713 mmHg 70%
20:00 +22°C° 0.2 mm 1 m/S 714 mmHg 75%
21:00 +20°C° 0.2 mm 1 m/S 714 mmHg 79%
22:00 +19°C° 0.7 mm 1 m/S 714 mmHg 83%
23:00 +19°C° 0.7 mm 1 m/S 714 mmHg 87%

übermorgen, 19 Juni, Samstag

Zeit Temperatur Niederschläge Wind Luftdruck Luftfeuchtigkeit
00:00 +18°C° 0.7 mm 1 m/S 714 mmHg 92%
01:00 +18°C° 0.5 mm 1 m/S 713 mmHg 92%
02:00 +18°C° 0.5 mm 1 m/S 713 mmHg 93%
03:00 +16°C° 0.5 mm 1 m/S 713 mmHg 94%
04:00 +18°C° 1.5 mm 1 m/S 713 mmHg 95%
05:00 +18°C° 1.5 mm 1 m/S 713 mmHg 96%
06:00 +18°C° 1.5 mm 1 m/S 713 mmHg 97%
07:00 +19°C° 0.2 mm 1 m/S 713 mmHg 93%
08:00 +20°C° 0.2 mm 1 m/S 713 mmHg 88%
09:00 +20°C° 0.2 mm 2 m/S 713 mmHg 84%
10:00 +21°C° 0.6 mm 2 m/S 713 mmHg 78%
11:00 +23°C° 0.6 mm 2 m/S 713 mmHg 72%
12:00 +25°C° 0.6 mm 3 m/S 713 mmHg 66%
13:00 +25°C° 0.7 mm 3 m/S 712 mmHg 64%
14:00 +25°C° 0.7 mm 2 m/S 712 mmHg 63%
15:00 +25°C° 0.7 mm 2 m/S 711 mmHg 62%
16:00 +25°C° 0.3 mm 2 m/S 711 mmHg 61%
17:00 +25°C° 0.3 mm 2 m/S 711 mmHg 61%
18:00 +25°C° 0.3 mm 2 m/S 710 mmHg 60%
19:00 +21°C° 0.1 mm 2 m/S 711 mmHg 65%
20:00 +18°C° 0.1 mm 2 m/S 711 mmHg 69%
21:00 +16°C° 0.1 mm 2 m/S 711 mmHg 74%
22:00 +15°C° 0 mm 2 m/S 711 mmHg 74%
23:00 +15°C° 0 mm 2 m/S 711 mmHg 74%

20 Juni, Sonntag

Zeit Temperatur Niederschläge Wind Luftdruck Luftfeuchtigkeit
00:00 +15°C° 0 mm 2 m/S 711 mmHg 74%
01:00 +14°C° 0 mm 2 m/S 711 mmHg 75%
02:00 +14°C° 0 mm 2 m/S 710 mmHg 75%
03:00 +14°C° 0 mm 2 m/S 710 mmHg 76%
04:00 +14°C° 0 mm 2 m/S 711 mmHg 77%
05:00 +14°C° 0 mm 3 m/S 711 mmHg 77%
06:00 +14°C° 0 mm 3 m/S 711 mmHg 78%
07:00 +17°C° 0 mm 4 m/S 711 mmHg 71%
08:00 +18°C° 0 mm 4 m/S 711 mmHg 64%
09:00 +19°C° 0 mm 5 m/S 711 mmHg 57%
10:00 +20°C° 0 mm 5 m/S 711 mmHg 57%
11:00 +21°C° 0 mm 6 m/S 712 mmHg 56%
12:00 +21°C° 0 mm 6 m/S 712 mmHg 56%
13:00 +22°C° 0 mm 6 m/S 711 mmHg 55%
14:00 +22°C° 0 mm 6 m/S 711 mmHg 55%
15:00 +23°C° 0 mm 6 m/S 711 mmHg 55%
16:00 +22°C° 0 mm 5 m/S 711 mmHg 56%
17:00 +22°C° 0 mm 5 m/S 711 mmHg 56%
18:00 +21°C° 0 mm 4 m/S 711 mmHg 57%
19:00 +19°C° 0 mm 4 m/S 711 mmHg 59%
20:00 +18°C° 0 mm 3 m/S 711 mmHg 62%
21:00 +16°C° 0 mm 3 m/S 711 mmHg 64%
22:00 +14°C° 0 mm 3 m/S 711 mmHg 66%
23:00 +15°C° 0 mm 2 m/S 711 mmHg 68%

21 Juni, Montag

Zeit Temperatur Niederschläge Wind Luftdruck Luftfeuchtigkeit
00:00 +14°C° 0 mm 2 m/S 711 mmHg 70%
01:00 +13°C° 0 mm 3 m/S 711 mmHg 71%
02:00 +13°C° 0 mm 3 m/S 711 mmHg 71%
03:00 +12°C° 0 mm 3 m/S 711 mmHg 72%
04:00 +12°C° 0 mm 3 m/S 711 mmHg 73%
05:00 +12°C° 0 mm 3 m/S 712 mmHg 74%
06:00 +12°C° 0 mm 3 m/S 712 mmHg 74%
07:00 +14°C° 0 mm 3 m/S 712 mmHg 67%
08:00 +15°C° 0 mm 4 m/S 712 mmHg 60%
09:00 +18°C° 0 mm 4 m/S 713 mmHg 52%
10:00 +19°C° 0 mm 4 m/S 713 mmHg 49%
11:00 +20°C° 0 mm 4 m/S 713 mmHg 45%
12:00 +21°C° 0 mm 4 m/S 713 mmHg 42%
13:00 +22°C° 0 mm 5 m/S 713 mmHg 43%
14:00 +22°C° 0 mm 5 m/S 713 mmHg 44%
15:00 +22°C° 0 mm 5 m/S 713 mmHg 46%
16:00 +21°C° 0 mm 5 m/S 713 mmHg 52%
17:00 +19°C° 0 mm 4 m/S 714 mmHg 59%
18:00 +18°C° 0 mm 4 m/S 714 mmHg 66%
19:00 +17°C° 0.1 mm 3 m/S 715 mmHg 74%
20:00 +15°C° 0.1 mm 2 m/S 715 mmHg 83%
21:00 +13°C° 0.1 mm 1 m/S 716 mmHg 92%
22:00 +13°C° 0 mm 1 m/S 716 mmHg 91%
23:00 +13°C° 0 mm 1 m/S 716 mmHg 90%

22 Juni, Dienstag

Zeit Temperatur Niederschläge Wind Luftdruck Luftfeuchtigkeit
00:00 +14°C° 0 mm 1 m/S 716 mmHg 89%
01:00 +13°C° 0 mm 1 m/S 716 mmHg 88%
02:00 +13°C° 0 mm 1 m/S 716 mmHg 88%
03:00 +12°C° 0 mm 0 m/S 716 mmHg 87%
04:00 +13°C° 0.1 mm 1 m/S 717 mmHg 87%
05:00 +14°C° 0.1 mm 1 m/S 717 mmHg 86%
06:00 +14°C° 0.1 mm 1 m/S 717 mmHg 85%
07:00 +14°C° 0.1 mm 1 m/S 718 mmHg 85%
08:00 +14°C° 0.1 mm 1 m/S 718 mmHg 84%
09:00 +14°C° 0.1 mm 2 m/S 719 mmHg 83%
10:00 +15°C° 0.1 mm 2 m/S 719 mmHg 80%
11:00 +16°C° 0.1 mm 2 m/S 720 mmHg 76%
12:00 +17°C° 0.1 mm 3 m/S 720 mmHg 72%
13:00 +17°C° 0.1 mm 3 m/S 720 mmHg 69%
14:00 +18°C° 0.1 mm 4 m/S 720 mmHg 66%
15:00 +19°C° 0.1 mm 4 m/S 720 mmHg 62%
16:00 +18°C° 0 mm 4 m/S 720 mmHg 65%
17:00 +17°C° 0 mm 4 m/S 720 mmHg 67%
18:00 +15°C° 0 mm 4 m/S 721 mmHg 69%
19:00 +13°C° 0 mm 3 m/S 721 mmHg 75%
20:00 +13°C° 0 mm 2 m/S 721 mmHg 82%
21:00 +11°C° 0 mm 1 m/S 721 mmHg 88%
22:00 +10°C° 0 mm 1 m/S 721 mmHg 89%
23:00 +10°C° 0 mm 1 m/S 721 mmHg 90%
Mehr zeigen

Wir brauchen deine Erlaubnis

Meteoprog und unser Service Anbieter werden persönliche Daten aufbewahren, so wie Cookies, Geräte Bezeichnung oder ähnliche Technologien von deinem Gerät und Prozess, so wie Persönliche Daten Inhalte und Werbungen, genauso wie social Media und den Verkehr zu analysieren.

  • Aufbewahrung und/oder Zugang zu deiner Geräte Informationen.

    Cookies, Geräte Bezeichnung oder andere Informationen, können aufbewahrt oder Zugang zu deinem Gerät erhalten, für den Grund, der oben angegeben wird.

  • Personalisierte Werbung und Inhalte, Messungen, Einblick in das Publikum und Produkt Entwicklung.

    Werbungen und Inhalte können personalisiert werden, basierend auf ein Profil. Mehr Daten können besser personalisierte Werbungen und Inhalte hinzufügen. Werbung und Inhalte können gezeigt und gemessen werden. Einblicke über das Publikum, welche die Werbung gesehen haben und den Inhalt, können abgeleitet werden. So wie Daten können genutzt werden, um es zu verbessern oder die Benutzer Erfahrung zu verbessern das System und die Software.

Wenn du “Ich stimme zu” klickst, erlaubst du uns, die Cookies zu benutzen die Geräte Bezeichnung, den Web oder ähnliche Technologien zu benutzen. Deine Settings, können in deinem Gerät bei deinem Browser geändert werden.

Für den bestimmten Zweck, berechtigten Interessen beruhen darauf, mehr als auf den Inhalt. Du kannst mehr darüber in unseren Privaten und Cookie Politik lesen.